Starlink 31932

operational
NORAD ID: 59929 Int'l Des: 2024-106 Owner: SPXS Country: US Constellation: starlink
LEOCIRCULAR

About Starlink 31932

Description loading...

Live Position

Loading 3D Globe...

Upcoming Passes

Altitude History

Altitude vs Time

uPlot chart will show altitude changes over time

Two-Line Element Set

1 59929U 24106H 26048.12578579 -.00075574 00000-0 -27682-2 0 9998
2 59929 43.0006 85.4560 0000875 130.8296 229.2632 15.27541591 97413
Epoch: Feb 17, 2026 • Age: 22 hours

Current Status

Altitude 488.5 km
Velocity 7.62 km/s
Sub-Earth Point -19.72°S, 103.09°W
Launch Date Jun 1, 2024
Age 1.7 years
Type internet

Technical Details

Classification Payload
Mass 730.00 kg
Dry Mass 700.00 kg
Total Mass 730.00 kg
Length 0.30 m
Diameter 4.10 m
Span 29.00 m
Shape Box + pan
Manufacturer SPXS
Bus Type Starlink V2M
Phase Status In Orbit
Owner/State SPXS/US

Large Constellations

Loading constellations...